Location: *
(37.5724°S, 58.0067°E)
Time: 02:02:46
(UTC+00:00)

X-37B - Pass Details

Date: 04 December 2020
Orbit: 385 x 390 km, 45.0° (Epoch: 20 January)

Event Time Altitude Azimuth Distance (km) Brightness Sun altitude
Exits shadow 22:55:07 54° 315° (NW) 486 0.6 -17.1°
Maximum altitude 22:55:44 79° 28° (NNE) 407 0.5 -17.0°
Drops below altitude 10° 22:59:00 10° 116° (ESE) 1,445 4.6 -16.6°
Sets 23:01:06 0° 117° (ESE) 2,307 5.9 -16.3°
